Lake Eufaula Weather Center

Moon Phase Calendar



Lake Eufaula Water Level
Online Cameras

 


      

Current Conditions in Georgetown
4/15/2024 2:49:51 PM

81°F
Feels Like 81
Clear
Humidity
40%
Pressure
30.06"
Wind
7.3 mph (SSW)
Dew Point
54°F
UV Index
7/10 (High)
Visibility
6 mi

Hourly Forecast

Date & Time Mon, Apr 15
2:00 PM
Mon, Apr 15
3:00 PM
Mon, Apr 15
4:00 PM
Mon, Apr 15
5:00 PM
Mon, Apr 15
6:00 PM
Mon, Apr 15
7:00 PM
Mon, Apr 15
8:00 PM
Mon, Apr 15
9:00 PM
Mon, Apr 15
10:00 PM
Mon, Apr 15
11:00 PM
Tue, Apr 16
12:00 AM
Tue, Apr 16
1:00 AM
Tue, Apr 16
2:00 AM
Tue, Apr 16
3:00 AM
Tue, Apr 16
4:00 AM
Tue, Apr 16
5:00 AM
Tue, Apr 16
6:00 AM
Tue, Apr 16
7:00 AM
Tue, Apr 16
8:00 AM
Tue, Apr 16
9:00 AM
Tue, Apr 16
10:00 AM
Tue, Apr 16
11:00 AM
Tue, Apr 16
12:00 PM
Tue, Apr 16
1:00 PM
Tue, Apr 16
2:00 PM
Tue, Apr 16
3:00 PM
Tue, Apr 16
4:00 PM
Tue, Apr 16
5:00 PM
Tue, Apr 16
6:00 PM
Tue, Apr 16
7:00 PM
Tue, Apr 16
8:00 PM
Tue, Apr 16
9:00 PM
Tue, Apr 16
10:00 PM
Tue, Apr 16
11:00 PM
Wed, Apr 17
12:00 AM
Wed, Apr 17
1:00 AM
Wed, Apr 17
2:00 AM
Wed, Apr 17
3:00 AM
Wed, Apr 17
4:00 AM
Wed, Apr 17
5:00 AM
Wed, Apr 17
6:00 AM
Wed, Apr 17
7:00 AM
Wed, Apr 17
8:00 AM
Wed, Apr 17
9:00 AM
Wed, Apr 17
10:00 AM
Wed, Apr 17
11:00 AM
Wed, Apr 17
12:00 PM
Wed, Apr 17
1:00 PM
Condition
Clear

Clear

Clear

Clear

Clear

Clouds

Clouds

Clouds

Clouds

Clouds

Clouds

Clouds

Clouds

Clouds

Clouds

Clouds

Clouds

Clouds

Clouds

Clouds

Clouds

Clouds

Clouds

Clouds

Clouds

Clouds

Clouds

Clouds

Clouds

Clouds

Clouds

Clouds

Clouds

Clouds

Clouds

Clouds

Clouds

Clouds

Clouds

Clouds

Clouds

Clouds

Clouds

Clouds

Clouds

Clouds

Clouds

Clouds
Temperature 81°F81°F81°F81°F80°F76°F69°F67°F66°F64°F62°F60°F60°F60°F60°F59°F59°F59°F60°F64°F69°F70°F74°F78°F79°F80°F81°F81°F79°F76°F72°F70°F68°F66°F66°F64°F63°F63°F62°F62°F61°F62°F62°F65°F69°F73°F75°F78°F
Feels Like 80°F81°F81°F80°F80°F76°F69°F66°F66°F64°F61°F60°F59°F59°F59°F58°F58°F57°F59°F64°F68°F69°F73°F77°F79°F80°F81°F81°F79°F76°F72°F70°F68°F66°F66°F64°F63°F62°F62°F62°F60°F61°F61°F65°F68°F72°F75°F78°F
Cloudiness 8%9%9%7%6%19%34%75%39%31%31%27%38%100%100%100%100%100%96%100%100%100%100%99%98%93%94%96%97%97%98%100%100%100%100%100%100%100%100%100%100%100%100%100%100%100%100%100%
Visibility 6 mi6 mi6 mi6 mi6 mi6 mi6 mi6 mi6 mi6 mi6 mi6 mi6 mi6 mi6 mi6 mi6 mi6 mi6 mi6 mi6 mi6 mi6 mi6 mi6 mi6 mi6 mi6 mi6 mi6 mi6 mi6 mi6 mi6 mi6 mi6 mi6 mi6 mi6 mi6 mi6 mi6 mi6 mi6 mi6 mi6 mi6 mi6 mi
Precipitation 0%0%0%0%0%0%0%0%0%0%0%0%0%0%0%0%0%0%0%0%0%0%0%0%0%0%0%0%0%0%0%0%0%0%0%0%0%0%0%0%0%0%0%0%0%0%0%0%
Humidity 38%40%38%37%39%52%61%61%60%65%71%71%68%67%67%68%68%69%70%62%53%50%44%40%40%41%41%42%51%61%67%69%74%77%76%80%80%78%76%74%73%68%68%66%58%53%52%50%
Dew Point 53°F54°F53°F52°F53°F57°F55°F53°F52°F52°F52°F51°F49°F49°F49°F49°F48°F48°F50°F51°F51°F51°F51°F51°F53°F54°F55°F56°F59°F62°F60°F59°F59°F59°F58°F57°F57°F56°F55°F53°F52°F51°F52°F53°F53°F54°F56°F58°F
Pressure 30.06"30.06"30.06"30.06"30.03"30.03"30.06"30.06"30.09"30.09"30.09"30.09"30.09"30.09"30.09"30.09"30.09"30.09"30.12"30.15"30.15"30.15"30.15"30.12"30.09"30.09"30.06"30.06"30.06"30.03"30.06"30.09"30.09"30.09"30.09"30.09"30.06"30.06"30.06"30.06"30.09"30.09"30.09"30.09"30.09"30.12"30.09"30.09"
Wind Speed 6.7 mph7.3 mph7.8 mph7.6 mph7.1 mph4.8 mph4.1 mph3.3 mph4.1 mph6 mph5.8 mph4.9 mph3.8 mph4.4 mph3 mph2.5 mph2.5 mph2.2 mph2.7 mph3.2 mph4.8 mph5.5 mph6.4 mph8.4 mph10.2 mph9.7 mph9.5 mph9 mph6.3 mph3.7 mph3 mph7.3 mph5.7 mph6.7 mph6.9 mph3.7 mph2.3 mph1.7 mph0.3 mph4.3 mph4.2 mph3.7 mph3.9 mph5.3 mph5.2 mph5.8 mph8.6 mph9.3 mph
Wind
Direction
211°
SSW
206°
SSW
208°
SSW
207°
SSW
203°
SSW
198°
SSW
197°
SSW
206°
SSW
201°
SSW
211°
SSW
213°
SSW
224°
SW
215°
SW
214°
SW
199°
SSW
205°
SSW
214°
SW
187°
S
174°
S
164°
SSE
161°
SSE
153°
SSE
181°
S
172°
S
170°
S
182°
S
185°
S
196°
SSW
206°
SSW
190°
S
205°
SSW
184°
S
206°
SSW
195°
SSW
207°
SSW
206°
SSW
220°
SW
208°
SSW
74°
ENE
166°
SSE
173°
S
196°
SSW
164°
SSE
162°
SSE
200°
SSW
211°
SSW
196°
SSW
192°
SSW

Daily Forecast

Date High Low Precip. Humidity
Today
Apr 15

Clear
81 °F
56 °F
0%
37%
Tuesday
Apr 16

Clouds
81 °F
59 °F
0%
40%
Wednesday
Apr 17

Clouds
81 °F
61 °F
0%
50%
Thursday
Apr 18

Rain
84 °F
64 °F
29%
55%
Friday
Apr 19

Clouds
86 °F
68 °F
2%
42%
Saturday
Apr 20

Rain
73 °F
66 °F
94%
82%
Sunday
Apr 21

Rain
73 °F
60 °F
100%
60%
Monday
Apr 22

Rain
60 °F
55 °F
100%
91%
Tuesday
Apr 23

Clear
74 °F
51 °F
0%
45%
Wednesday
Apr 24

Clear
78 °F
56 °F
0%
45%
Thursday
Apr 25

Rain
77 °F
61 °F
100%
57%
Friday
Apr 26

Rain
75 °F
63 °F
100%
96%
Saturday
Apr 27

Clouds
79 °F
59 °F
0%
47%
Sunday
Apr 28

Clear
81 °F
58 °F
0%
43%
Monday
Apr 29

Clear
82 °F
61 °F
0%
44%
Tuesday
Apr 30

Clouds
84 °F
63 °F
0%
39%

Temperature 8-14 Day Outlook



Precipitation 8-14 Day Outlook




Quick Links
Lake Eufaula News
Lake Eufaula Photos
Lake Eufaula Videos




About Us
Contact Us
Site Map
Search Site
Advertise With Us
   
www.LakeEufaula.info
THE LAKE EUFAULA WEBSITE

Copyright 2024, Lakes Online
Privacy    |    Legal